Location: Kellogg
(38.0159°N, 90.0546°W)
Time: 08:26:23
(UTC+00:00)

Vanguard 1 Rocket - Pass Details

Date: 21 September 2024
Orbit: 650 x 4218 km, 34.3° (Epoch: 09 October)

Event Time Altitude Azimuth Distance (km) Brightness Sun altitude
Rises 12:36:50 0° 280° (W) 6,306 11.0 8.8°
Reaches altitude 10° 12:40:19 10° 278° (W) 5,666 10.8 9.5°
Maximum altitude 12:59:42 67° 201° (SSW) 4,175 10.9 13.3°
Drops below altitude 10° 13:25:32 10° 126° (SE) 7,191 13.5 18.3°
Sets 13:30:44 0° 124° (ESE) 7,984 13.5 19.2°
